Sturgeon Bay, WI

10:46 AM CST on January 20, 2017 (GMT -0600)
Door County Cherryland

Weather History for KSUE - November, 2011

Change the Weather History Date:

Tuesday, November 1, 2011

  Actual Average Record
Temperature  
Mean Temperature 46 °F -  
Max Temperature 53 °F 52 °F 69 °F (1999)
Min Temperature 39 °F 37 °F 18 °F (1930)
Degree Days  
Heating Degree Days 19    
Moisture  
Dew Point 39 °F    
Average Humidity 74    
Maximum Humidity 87    
Minimum Humidity 54    
Precipitation  
Precipitation 0.00 in - - ()
Sea Level Pressure  
Sea Level Pressure 30.06 in    
Wind  
Wind Speed 9 mph (South)    
Max Wind Speed 21 mph    
Max Gust Speed 33 mph    
Visibility 10 miles    
Events      
Averages and records for this station are not official NWS values.
T = Trace of Precipitation, MM = Missing Value Source: NWS Daily Summary

Daily Weather History Graph

Daily Weather History Graph

Search for Another Location

Airport or City:

Trip Planner

Search our weather history database for the weather conditions in past years. The results will help you decide how hot, cold, wet, or windy it might be!

Date:

Astronomy

Nov. 01, 2011 Rise Set
Actual Time 7:27 AM CDT 5:38 PM CDT
Civil Twilight 6:56 AM CDT 6:08 PM CDT
Nautical Twilight 6:22 AM CDT 6:43 PM CDT
Astronomical Twilight 5:48 AM CDT 7:17 PM CDT
Moon 1:16 PM CDT (11/1) 11:18 PM CDT (11/1)
Length of Visible Light 11h 11m
Length of Day
10h 10m
Waxing Crescent, 40% of the Moon is Illuminated
Nov 1
Waxing Crescent
Nov 2
First Quarter
Nov 10
Full
Nov 18
Last Quarter
Nov 25
New

Hourly Weather History & Observations

Time (CDT) Temp. Windchill Dew Point Humidity Pressure Visibility Wind Dir Wind Speed Gust Speed Precip Events Conditions
12:15 AM - - - N/A% 30.11 in 10.0 mi SSW 5.8 mph - N/A   Overcast
12:55 AM - - - N/A% 30.11 in 10.0 mi South 5.8 mph - N/A   Overcast
1:15 AM - - - N/A% 30.11 in 10.0 mi South 3.5 mph - N/A   Overcast
1:35 AM - - - N/A% 30.10 in 10.0 mi SSW 6.9 mph - N/A   Overcast
1:55 AM - - - N/A% 30.11 in 10.0 mi South 5.8 mph - N/A   Overcast
2:15 AM - - - N/A% 30.11 in 10.0 mi South 5.8 mph - N/A   Overcast
2:35 AM - - - N/A% 30.10 in 10.0 mi South 6.9 mph - N/A   Overcast
2:55 AM - - - N/A% 30.11 in 10.0 mi SSW 5.8 mph - N/A   Overcast
3:15 AM 42.8 °F 38.6 °F 35.6 °F 76% 30.12 in 10.0 mi SSW 6.9 mph - N/A   Overcast
3:35 AM - - - N/A% 30.11 in 10.0 mi South 5.8 mph - N/A   Mostly Cloudy
3:55 AM - - - N/A% 30.11 in 10.0 mi South 5.8 mph - N/A   Partly Cloudy
4:15 AM 39.2 °F 35.0 °F 35.6 °F 87% 30.12 in 10.0 mi SSW 5.8 mph - N/A   Partly Cloudy
4:35 AM 39.2 °F 35.0 °F 33.8 °F 81% 30.12 in 10.0 mi South 5.8 mph - N/A   Partly Cloudy
4:55 AM 39.2 °F 34.2 °F 33.8 °F 81% 30.12 in 10.0 mi South 6.9 mph - N/A   Scattered Clouds
5:15 AM 39.2 °F 35.0 °F 33.8 °F 81% 30.10 in 10.0 mi South 5.8 mph - N/A   Mostly Cloudy
5:35 AM 39.2 °F 34.2 °F 33.8 °F 81% 30.10 in 10.0 mi South 6.9 mph - N/A   Partly Cloudy
5:55 AM 39.2 °F 34.2 °F 33.8 °F 81% 30.11 in 10.0 mi SSW 6.9 mph - N/A   Mostly Cloudy
6:15 AM 39.2 °F 34.2 °F 33.8 °F 81% 30.11 in 10.0 mi South 6.9 mph - N/A   Mostly Cloudy
6:35 AM 39.2 °F 33.6 °F 33.8 °F 81% 30.10 in 10.0 mi South 8.1 mph - N/A   Partly Cloudy
6:55 AM 39.2 °F 34.2 °F 33.8 °F 81% 30.09 in 10.0 mi South 6.9 mph - N/A   Clear
7:15 AM 39.2 °F 34.2 °F 33.8 °F 81% 30.08 in 10.0 mi South 6.9 mph - N/A   Clear
8:35 AM 42.8 °F 36.6 °F 35.6 °F 76% 30.08 in 10.0 mi South 11.5 mph - N/A   Mostly Cloudy
8:55 AM 42.8 °F 37.5 °F 35.6 °F 76% 30.09 in 10.0 mi South 9.2 mph - N/A   Mostly Cloudy
9:15 AM 44.6 °F 40.2 °F 35.6 °F 71% 30.10 in 10.0 mi South 8.1 mph - N/A   Overcast
9:35 AM 44.6 °F 39.2 °F 35.6 °F 71% 30.08 in 10.0 mi South 10.4 mph - N/A   Mostly Cloudy
10:15 AM 46.4 °F 40.7 °F 35.6 °F 66% 30.08 in 10.0 mi South 12.7 mph - N/A   Overcast
10:35 AM 46.4 °F 40.4 °F 35.6 °F 66% 30.07 in 10.0 mi South 13.8 mph - N/A   Overcast
10:55 AM 48.2 °F - 35.6 °F 62% 30.07 in 10.0 mi South 11.5 mph - N/A   Overcast
11:15 AM 48.2 °F - 35.6 °F 62% 30.07 in 10.0 mi South 9.2 mph 18.4 mph N/A   Overcast
11:35 AM 51.8 °F - 35.6 °F 54% 30.08 in 10.0 mi South 10.4 mph 18.4 mph N/A   Partly Cloudy
12:15 PM 51.8 °F - 37.4 °F 58% 30.08 in 10.0 mi South 13.8 mph - N/A   Clear
12:35 PM 51.8 °F - 37.4 °F 58% 30.07 in 10.0 mi SSE 15.0 mph 19.6 mph N/A   Clear
12:55 PM 53.6 °F - 41.0 °F 62% 30.05 in 10.0 mi South 16.1 mph 20.7 mph N/A   Clear
1:15 PM 53.6 °F - 39.2 °F 58% 30.04 in 10.0 mi SSE 15.0 mph 19.6 mph N/A   Clear
1:35 PM 53.6 °F - 39.2 °F 58% 30.04 in 10.0 mi South 15.0 mph 25.3 mph N/A   Clear
1:55 PM 51.8 °F - 41.0 °F 67% 30.03 in 10.0 mi South 17.3 mph 26.5 mph N/A   Clear
2:15 PM 51.8 °F - 41.0 °F 67% 30.03 in 10.0 mi South 17.3 mph 25.3 mph N/A   Partly Cloudy
2:35 PM 51.8 °F - 42.8 °F 71% 30.02 in 10.0 mi South 19.6 mph 26.5 mph N/A   Partly Cloudy
2:55 PM 50.0 °F - 42.8 °F 76% 30.01 in 10.0 mi SSE 18.4 mph 28.8 mph N/A   Clear
3:15 PM 50.0 °F - 42.8 °F 76% 29.99 in 10.0 mi SSE 18.4 mph 25.3 mph N/A   Mostly Cloudy
3:55 PM 50.0 °F - 42.8 °F 76% 29.99 in 10.0 mi SSE 20.7 mph 28.8 mph N/A   Clear
4:15 PM 50.0 °F - 42.8 °F 76% 29.98 in 10.0 mi South 18.4 mph 26.5 mph N/A   Clear
4:35 PM 50.0 °F - 42.8 °F 76% 29.98 in 10.0 mi South 20.7 mph 33.4 mph N/A   Clear
4:55 PM 50.0 °F - 42.8 °F 76% 29.97 in 10.0 mi South 18.4 mph 27.6 mph N/A   Clear
5:15 PM 48.2 °F - 42.8 °F 82% 29.97 in 10.0 mi South 19.6 mph 28.8 mph N/A   Clear
5:35 PM 48.2 °F - 42.8 °F 82% 29.97 in 10.0 mi South 18.4 mph 27.6 mph N/A   Clear
6:35 PM 50.0 °F - 42.8 °F 76% 29.99 in 10.0 mi South 15.0 mph 21.9 mph N/A   Clear
7:15 PM 51.8 °F - 42.8 °F 71% 30.00 in 10.0 mi South 15.0 mph 23.0 mph N/A   Clear
7:35 PM 51.8 °F - 42.8 °F 71% 30.00 in 10.0 mi South 16.1 mph 20.7 mph N/A   Clear
7:55 PM 51.8 °F - 42.8 °F 71% 30.01 in 10.0 mi South 12.7 mph 18.4 mph N/A   Clear
8:15 PM 51.8 °F - 44.6 °F 76% 30.01 in 10.0 mi South 9.2 mph - N/A   Clear
8:35 PM 51.8 °F - 44.6 °F 76% 30.02 in 10.0 mi South 8.1 mph - N/A   Clear
8:55 PM 50.0 °F - 44.6 °F 82% 30.02 in 10.0 mi South 9.2 mph - N/A   Clear
9:35 PM 51.8 °F - 44.6 °F 76% 30.02 in 10.0 mi South 6.9 mph - N/A   Mostly Cloudy
9:55 PM 51.8 °F - 44.6 °F 76% 30.01 in 10.0 mi South 11.5 mph - N/A   Overcast
10:35 PM 53.6 °F - 44.6 °F 72% 30.00 in 10.0 mi South 10.4 mph - N/A   Overcast
11:15 PM 53.6 °F - 46.4 °F 77% 29.99 in 10.0 mi South 8.1 mph - N/A   Overcast
11:35 PM 51.8 °F - 46.4 °F 82% 30.00 in 10.0 mi South 6.9 mph - N/A   Overcast
11:55 PM 51.8 °F - 46.4 °F 82% 30.00 in 10.0 mi Calm Calm - N/A   Overcast